This is the latest recevied weather packets stored in our database for station/object SQ5LTL-2. If no packets are shown the sender has not sent any weather packets the latest 10 day(s).
| Time | Temp. | Humidity | Pressure | Rain* | Wind** | Luminosity | Snow |
|---|---|---|---|---|---|---|---|
| 1777818317 | 25.56° C | 27% | 1016.9 hPa | 0 mm | - | 319 W/m² | - |
| 1777818017 | 25° C | 28% | 1016.9 hPa | 0 mm | - | 333 W/m² | - |
| 1777817736 | 25.56° C | 27% | 1017 hPa | 0 mm | - | 346 W/m² | - |
| 1777817434 | 25.56° C | 27% | 1017.1 hPa | 0 mm | - | 357 W/m² | - |
| 1777817133 | 25.56° C | 27% | 1017.1 hPa | 0 mm | - | 363 W/m² | - |
| 1777816832 | 25.56° C | 27% | 1017.2 hPa | 0 mm | - | 367 W/m² | - |
| 1777816529 | 25.56° C | 27% | 1017.3 hPa | 0 mm | - | 381 W/m² | - |
| 1777816227 | 25.56° C | 26% | 1017.2 hPa | 0 mm | - | 386 W/m² | - |
| 1777815926 | 25.56° C | 26% | 1017.4 hPa | 0 mm | - | 396 W/m² | - |
| 1777815625 | 25.56° C | 26% | 1017.5 hPa | 0 mm | - | 395 W/m² | - |
| 1777815323 | 25.56° C | 27% | 1017.6 hPa | 0 mm | - | 401 W/m² | - |
| 1777815022 | 25° C | 27% | 1017.6 hPa | 0 mm | - | 414 W/m² | - |
| 1777814721 | 25° C | 27% | 1017.7 hPa | 0 mm | - | 416 W/m² | - |
| 1777814418 | 25.56° C | 27% | 1017.7 hPa | 0 mm | - | 422 W/m² | - |
| 1777814117 | 25° C | 26% | 1017.9 hPa | 0 mm | - | 421 W/m² | - |
| 1777813817 | 25.56° C | 27% | 1017.8 hPa | 0 mm | - | 421 W/m² | - |
| 1777813534 | 25° C | 27% | 1017.8 hPa | 0 mm | - | 429 W/m² | - |
| 1777813233 | 25.56° C | 28% | 1017.9 hPa | 0 mm | - | 441 W/m² | - |
| 1777812931 | 25° C | 28% | 1017.9 hPa | 0 mm | - | 450 W/m² | - |
| 1777812630 | 25° C | 27% | 1018 hPa | 0 mm | - | 458 W/m² | - |
| 1777812328 | 25° C | 26% | 1018.1 hPa | 0 mm | - | 466 W/m² | - |
| 1777812027 | 25° C | 26% | 1018 hPa | 0 mm | - | 476 W/m² | - |
| 1777811726 | 25° C | 27% | 1018.2 hPa | 0 mm | - | 479 W/m² | - |
| 1777811424 | 25° C | 29% | 1018.1 hPa | 0 mm | - | 489 W/m² | - |
| 1777811124 | 25° C | 30% | 1018.1 hPa | 0 mm | - | 503 W/m² | - |
* Rain latest hour (hover to see other rain measurements)
** Current wind speed in m/s (hover to see current wind gust speed)